Location: Seattle
(47.6064°N, 122.3308°W)
Time: 23:51:49
(UTC-07:00)

RS-15 - Pass Details

Date: 10 April 2023
Orbit: 1885 x 2159 km, 64.8° (Epoch: 29 May)

Event Time Altitude Azimuth Distance (km) Brightness Sun altitude
Rises 01:32:29 0° 321° (NW) 5,605 11.0 -34.3°
Reaches altitude 10° 01:36:35 10° 311° (NW) 4,563 10.3 -34.2°
Maximum altitude 01:45:49 28° 258° (WSW) 3,215 8.9 -33.9°
Enters shadow 01:46:16 28° 255° (WSW) 3,214 8.9 -33.9°
